Probability
0 0 0 0 0 0 0 0 0 0 0 0 0 0 0 0 0 0 0 0 0 0 10 19 48 61 65 68 74 74 74 77 74 71 68 74 68 65 65 58 61 65 58 55 48 42 39 19 19
0 0 0 0 0 0 0 0 0 0 0 0 0 0 0 0 0 0 0 0 0 0 10 16 42 58 61 65 65 68 68 74 74 77 74 65 65 61 58 58 58 61 52 52 45 42 29 19 16
0 0 0 0 0 0 0 0 0 0 0 0 0 0 0 0 0 0 0 0 0 0 10 16 26 55 55 61 65 61 65 68 71 71 71 65 58 58 58 55 55 58 55 45 39 39 32 19 16
0 0 0 0 0 0 0 0 0 0 0 0 0 0 0 0 0 0 0 0 0 3 13 16 19 35 42 52 52 52 58 55 55 58 61 55 48 55 55 55 55 52 45 42 39 32 16 16 16
0 0 0 0 0 0 0 0 0 0 0 0 0 0 0 0 0 0 0 0 0 3 13 16 16 23 39 39 45 45 45 45 48 45 45 45 48 48 52 58 55 55 42 39 32 26 16 13 16
0 0 0 0 0 0 0 0 0 0 0 0 0 0 0 0 0 0 0 0 0 6 10 16 13 16 26 32 39 35 26 26 45 45 39 45 39 39 35 39 42 52 39 32 29 23 16 13 6
0 0 0 0 0 0 0 0 0 0 0 0 0 0 0 0 0 0 0 0 3 6 6 13 13 13 13 13 26 26 32 29 29 29 32 35 39 42 32 35 32 32 29 32 29 23 13 10 6
0 0 0 0 0 0 0 0 0 0 0 0 0 0 0 0 0 0 0 0 6 6 6 13 13 13 13 6 6 10 13 16 19 16 10 10 19 19 29 23 19 23 29 16 13 10 10 10 6
0 0 0 0 0 0 0 0 0 0 0 0 0 0 0 0 0 0 0 3 6 6 6 6 10 10 6 10 0 0 3 6 6 6 3 0 6 10 13 3 0 13 13 13 10 3 10 3 0
0 0 0 0 0 0 0 0 0 0 0 0 0 0 0 0 0 0 0 3 3 3 6 10 6 10 6 6 0 0 0 6 3 3 3 6 6 10 3 3 0 3 6 0 0 3 3 3 3
0 0 0 0 0 0 0 0 0 0 0 0 0 0 0 0 0 0 0 0 3 3 3 3 6 10 6 6 3 0 0 0 3 3 3 3 3 6 6 10 3 6 0 6 0 6 3 3 6
0 0 0 0 0 0 0 0 0 0 0 0 0 0 0 0 0 0 0 0 0 3 3 3 3 10 6 3 3 3 0 0 0 3 3 3 3 3 6 6 13 10 10 10 16 10 3 3 6
0 0 0 0 0 0 0 0 0 0 0 0 0 0 0 0 0 0 0 0 0 3 3 3 3 3 3 3 3 3 0 0 0 0 6 3 3 3 0 3 10 10 10 6 13 13 3 0 0
0 0 0 0 0 0 0 0 0 0 0 0 0 0 0 0 0 0 0 0 0 0 3 0 0 0 0 3 0 0 0 0 0 0 0 3 0 0 0 0 3 0 10 6 6 6 0 0 0
0 0 0 0 0 0 0 0 0 0 0 0 0 0 0 0 0 0 0 0 0 0 0 0 0 0 0 0 0 3 0 0 0 0 0 0 0 0 0 0 0 3 3 3 3 3 3 0 0
0 0 0 0 0 0 0 0 0 0 0 0 0 0 0 0 0 0 0 0 0 0 0 0 0 0 0 0 0 0 0 0 0 0 0 0 0 0 0 0 0 0 0 0 0 0 0 0 0
0 0 0 0 0 0 0 0 0 0 0 0 0 0 0 0 0 0 0 0 0 0 0 0 0 0 0 0 0 0 0 0 0 0 0 0 0 0 0 0 0 0 0 0 0 0 0 0 0
0 0 0 0 0 0 0 0 0 0 0 0 0 0 0 0 0 0 0 0 0 0 0 0 0 0 0 0 0 0 0 0 0 0 0 0 0 0 0 0 0 0 0 0 0 3 0 0 0
0 0 0 0 0 0 0 0 0 0 0 0 0 0 0 0 0 0 0 0 0 0 0 0 0 0 0 0 0 0 0 0 0 0 0 0 0 0 0 0 0 0 0 0 0 0 0 0 0
0 0 0 0 0 0 0 0 0 0 0 0 0 0 0 0 0 0 0 0 0 0 0 0 0 0 0 0 0 0 0 0 0 0 0 0 0 0 0 0 0 0 0 0 0 0 0 0 0
0 0 0 0 0 0 0 0 0 0 0 0 0 0 0 0 0 0 0 0 0 0 0 0 0 0 0 0 0 0 0 0 0 0 0 0 0 0 0 0 0 0 0 0 0 0 0 0 0
0 0 0 0 0 0 0 0 0 0 0 0 0 0 0 0 0 0 0 0 0 0 0 0 0 0 0 0 0 0 0 0 0 0 0 0 0 0 0 0 0 0 0 0 0 0 0 0 0
0 0 0 0 0 0 0 0 0 0 0 0 0 0 0 0 0 0 0 0 0 0 0 0 0 0 0 0 0 0 0 0 0 0 0 0 0 0 0 0 0 0 0 0 0 0 0 0 0
0 0 0 0 0 0 0 0 0 0 0 0 0 0 0 0 0 0 0 0 0 0 3 3 0 0 0 0 0 0 0 0 0 0 0 0 0 0 0 0 0 0 0 0 0 0 0 0 0
0 0 0 0 0 0 0 0 0 0 0 0 0 0 0 0 0 0 0 0 0 0 3 3 0 0 0 0 0 0 0 0 0 0 0 0 0 0 0 0 0 0 0 0 0 0 0 0 0
0 0 0 0 0 0 0 0 0 0 0 0 0 0 0 0 0 0 0 0 0 3 3 0 0 0 0 0 0 0 0 0 0 0 0 0 0 0 0 0 0 0 0 0 0 0 0 0 0
0 0 0 0 0 0 0 0 0 0 0 0 0 0 0 0 0 0 0 0 0 0 0 0 0 0 0 0 0 0 0 0 0 0 0 0 0 0 0 0 0 0 0 0 0 0 0 0 0
0 0 0 0 0 0 0 0 0 0 0 0 0 0 0 0 0 0 0 0 0 0 0 0 0 0 0 0 0 0 0 0 0 0 0 0 0 0 0 0 0 0 0 0 0 0 0 0 0
0 0 0 0 0 0 0 0 0 0 0 0 0 0 0 0 0 0 0 0 0 0 0 0 0 0 0 0 0 0 0 0 0 0 0 0 0 0 0 0 0 0 0 0 0 0 0 0 0
0 0 0 0 0 0 0 0 0 0 0 0 0 0 0 0 0 0 0 0 0 0 0 0 0 0 0 0 0 0 0 0 0 0 0 0 0 0 0 0 0 0 0 0 0 0 0 0 0
Height
5829 5829 5831 5832 5833 5834 5835 5836 5836 5837 5838 5838 5839 5840 5841 5843 5844 5847 5846 5845 5845 5846 5847 5847 5848 5849 5850 5850 5851 5852 5852 5852 5853 5854 5854 5855 5855 5856 5856 5856 5857 5857 5857 5857 5858 5857 5857 5857 5857
5825 5826 5827 5828 5829 5830 5831 5831 5832 5833 5834 5834 5835 5836 5837 5838 5839 5840 5840 5841 5842 5842 5843 5844 5844 5845 5846 5846 5847 5848 5849 5849 5850 5850 5851 5851 5852 5852 5852 5853 5853 5854 5854 5854 5854 5855 5854 5854 5854
5821 5822 5823 5824 5824 5826 5827 5827 5828 5828 5829 5830 5831 5831 5833 5834 5834 5835 5836 5836 5837 5838 5839 5839 5840 5841 5842 5842 5843 5844 5844 5845 5846 5846 5847 5847 5848 5848 5848 5849 5849 5850 5850 5851 5851 5851 5851 5851 5851
5817 5818 5819 5820 5820 5821 5822 5822 5823 5823 5824 5825 5826 5827 5828 5829 5829 5830 5831 5832 5832 5833 5834 5835 5835 5836 5837 5838 5838 5839 5840 5840 5841 5842 5842 5843 5843 5844 5844 5845 5845 5845 5846 5846 5847 5847 5847 5847 5847
5812 5813 5814 5814 5815 5816 5816 5817 5818 5818 5819 5820 5820 5821 5822 5823 5824 5825 5826 5826 5827 5827 5828 5829 5830 5831 5831 5832 5833 5834 5834 5835 5836 5836 5837 5838 5838 5839 5839 5839 5840 5841 5841 5842 5842 5842 5843 5843 5843
5807 5808 5809 5809 5810 5811 5811 5811 5812 5812 5813 5814 5814 5815 5816 5817 5818 5819 5820 5820 5821 5822 5822 5823 5824 5825 5826 5826 5827 5828 5828 5829 5830 5830 5831 5832 5833 5833 5834 5834 5835 5835 5836 5836 5837 5837 5838 5838 5838
5803 5803 5803 5803 5804 5805 5805 5806 5806 5806 5807 5808 5808 5809 5810 5811 5812 5812 5813 5814 5815 5815 5816 5817 5817 5818 5819 5820 5820 5821 5822 5822 5823 5824 5824 5825 5826 5827 5828 5828 5829 5829 5830 5830 5831 5831 5832 5833 5833
5796 5798 5797 5798 5798 5799 5799 5799 5799 5800 5800 5801 5801 5802 5803 5804 5804 5805 5806 5807 5807 5808 5809 5809 5810 5811 5811 5812 5813 5814 5814 5815 5816 5817 5817 5818 5819 5820 5820 5820 5821 5823 5823 5824 5825 5825 5826 5827 5828
5791 5793 5792 5792 5792 5792 5792 5792 5793 5793 5794 5794 5794 5795 5796 5797 5797 5798 5798 5799 5799 5800 5800 5801 5802 5803 5803 5804 5805 5806 5806 5807 5808 5809 5810 5810 5811 5812 5813 5814 5815 5816 5817 5817 5818 5819 5820 5820 5821
5786 5786 5786 5786 5786 5786 5786 5786 5786 5786 5786 5786 5787 5787 5788 5788 5789 5789 5789 5790 5790 5790 5791 5792 5793 5794 5795 5795 5796 5797 5798 5799 5799 5800 5801 5802 5803 5804 5805 5806 5807 5809 5810 5810 5811 5812 5812 5813 5815
5780 5780 5780 5779 5779 5779 5779 5779 5778 5778 5778 5779 5779 5779 5779 5780 5780 5780 5780 5780 5780 5780 5781 5782 5783 5784 5785 5786 5787 5787 5788 5789 5790 5791 5792 5793 5794 5795 5796 5797 5798 5799 5801 5802 5804 5804 5805 5806 5808
5775 5774 5774 5773 5773 5772 5772 5772 5771 5770 5771 5770 5770 5770 5770 5770 5770 5770 5770 5770 5770 5770 5771 5771 5772 5773 5774 5775 5776 5777 5778 5779 5780 5781 5782 5783 5784 5785 5786 5787 5788 5790 5792 5794 5795 5796 5797 5799 5800
5769 5768 5767 5766 5766 5765 5765 5764 5763 5762 5762 5761 5761 5761 5761 5761 5760 5760 5760 5759 5759 5760 5760 5760 5761 5762 5763 5764 5765 5766 5767 5768 5768 5770 5771 5772 5773 5774 5776 5777 5778 5780 5782 5784 5785 5787 5788 5790 5791
5763 5762 5761 5760 5759 5758 5757 5756 5755 5754 5753 5752 5751 5751 5751 5750 5750 5750 5749 5749 5749 5749 5749 5749 5749 5750 5751 5752 5753 5753 5754 5755 5756 5757 5759 5760 5761 5763 5764 5766 5767 5769 5770 5772 5774 5776 5778 5780 5782
5756 5756 5754 5753 5751 5750 5750 5748 5746 5745 5744 5742 5741 5741 5740 5740 5740 5739 5739 5738 5738 5738 5738 5738 5737 5737 5738 5739 5740 5740 5741 5742 5743 5744 5745 5746 5748 5750 5752 5753 5755 5757 5759 5761 5762 5764 5766 5768 5771
5750 5749 5748 5746 5744 5743 5743 5741 5738 5735 5734 5732 5731 5730 5730 5729 5729 5728 5728 5727 5727 5726 5726 5725 5724 5724 5725 5725 5726 5727 5727 5728 5729 5730 5730 5732 5733 5735 5737 5739 5742 5744 5746 5748 5750 5751 5754 5756 5759
5744 5742 5740 5739 5737 5735 5734 5733 5729 5726 5724 5723 5721 5720 5719 5719 5718 5717 5716 5716 5715 5714 5713 5713 5712 5711 5711 5711 5711 5712 5713 5713 5713 5714 5715 5717 5718 5719 5722 5724 5727 5729 5731 5734 5736 5738 5741 5744 5747
5738 5736 5734 5731 5730 5728 5726 5724 5721 5717 5715 5714 5711 5710 5708 5708 5707 5706 5705 5704 5703 5702 5701 5700 5699 5697 5697 5697 5696 5697 5698 5698 5697 5698 5700 5701 5702 5703 5705 5708 5711 5713 5716 5719 5721 5724 5727 5730 5733
5730 5728 5727 5725 5722 5720 5718 5716 5713 5709 5707 5705 5702 5700 5698 5697 5696 5694 5694 5693 5691 5690 5688 5687 5685 5684 5682 5682 5681 5682 5682 5682 5681 5682 5683 5684 5685 5686 5688 5691 5694 5696 5699 5703 5706 5708 5712 5715 5719
5723 5721 5719 5717 5714 5712 5710 5708 5705 5702 5699 5696 5693 5691 5688 5686 5685 5683 5682 5680 5679 5677 5675 5673 5671 5669 5667 5666 5666 5666 5666 5666 5665 5666 5666 5666 5667 5668 5670 5673 5675 5679 5682 5686 5689 5693 5696 5700 5704
5715 5713 5711 5708 5706 5703 5701 5700 5698 5694 5690 5687 5684 5681 5679 5676 5674 5672 5670 5668 5666 5664 5661 5659 5657 5655 5652 5651 5650 5649 5649 5649 5649 5648 5648 5648 5648 5649 5651 5654 5657 5660 5663 5668 5672 5676 5680 5685 5689
5706 5704 5702 5699 5697 5694 5693 5690 5689 5686 5682 5678 5675 5672 5669 5666 5664 5661 5659 5656 5653 5650 5647 5645 5642 5640 5637 5635 5633 5632 5631 5631 5630 5629 5630 5630 5630 5630 5632 5635 5638 5641 5645 5650 5655 5659 5663 5668 5673
5697 5695 5692 5690 5687 5685 5683 5680 5680 5676 5673 5669 5666 5662 5658 5656 5653 5650 5646 5643 5640 5636 5633 5630 5627 5624 5621 5618 5616 5615 5613 5612 5611 5610 5611 5611 5612 5612 5613 5615 5618 5622 5627 5632 5637 5641 5646 5651 5657
5687 5685 5682 5680 5677 5676 5675 5671 5670 5667 5663 5659 5655 5651 5648 5644 5641 5638 5634 5630 5626 5622 5619 5615 5612 5609 5606 5602 5600 5597 5596 5595 5594 5593 5593 5593 5593 5594 5595 5596 5599 5603 5608 5614 5619 5624 5629 5635 5641
5678 5675 5672 5669 5667 5666 5664 5661 5661 5657 5653 5648 5644 5640 5636 5632 5629 5626 5621 5617 5612 5608 5604 5600 5597 5594 5590 5586 5584 5581 5580 5578 5577 5577 5576 5576 5576 5577 5578 5579 5582 5586 5590 5596 5601 5607 5613 5619 5625
5668 5666 5663 5659 5656 5653 5652 5650 5651 5647 5642 5638 5633 5629 5624 5620 5616 5613 5608 5604 5599 5594 5590 5586 5582 5579 5575 5571 5569 5567 5564 5563 5562 5561 5560 5560 5560 5561 5562 5564 5566 5570 5574 5579 5585 5592 5598 5604 5611
5657 5655 5653 5649 5644 5642 5641 5640 5640 5637 5632 5627 5622 5617 5613 5608 5604 5600 5595 5590 5585 5580 5576 5572 5568 5564 5561 5558 5555 5553 5551 5549 5548 5547 5545 5545 5546 5547 5548 5549 5552 5556 5560 5565 5571 5577 5583 5590 5597
5647 5644 5642 5638 5634 5630 5629 5629 5629 5625 5621 5616 5611 5606 5601 5596 5591 5587 5582 5577 5572 5567 5562 5558 5554 5551 5547 5544 5542 5539 5537 5535 5534 5533 5532 5531 5532 5533 5535 5537 5539 5543 5547 5551 5557 5563 5570 5577 5584
5636 5634 5630 5627 5624 5620 5616 5620 5618 5614 5609 5604 5599 5593 5588 5584 5579 5574 5569 5564 5559 5554 5549 5545 5541 5537 5534 5531 5528 5526 5524 5522 5521 5520 5519 5519 5520 5521 5523 5525 5527 5531 5535 5539 5544 5551 5558 5565 5572
5623 5622 5619 5617 5613 5609 5604 5609 5607 5603 5597 5592 5587 5581 5576 5572 5567 5562 5557 5552 5547 5542 5537 5532 5528 5524 5521 5518 5515 5513 5511 5510 5509 5508 5507 5507 5508 5510 5511 5513 5516 5519 5523 5528 5533 5540 5547 5554 5562
Wind_Speed
19 19 19 20 20 20 19 19 20 20 21 21 21 21 21 21 21 21 20 19 19 20 20 20 20 20 21 21 21 21 22 22 22 22 22 22 22 22 21 21 21 20 19 18 18 17 17 16 15
20 20 20 20 21 21 21 21 21 21 22 22 22 22 22 22 22 22 21 21 21 21 21 21 21 21 22 22 23 23 23 24 24 24 24 24 23 23 23 23 23 22 21 21 20 19 19 18 17
20 20 21 21 21 21 22 22 22 23 23 23 23 24 24 23 24 24 23 23 23 23 23 23 23 24 24 24 24 24 24 25 25 25 25 25 25 25 25 25 24 24 23 23 22 22 21 21 20
21 21 22 22 22 22 23 24 24 24 25 25 26 25 25 25 25 25 25 26 26 26 26 25 26 26 26 26 26 26 26 26 26 27 27 27 26 27 27 27 26 26 26 25 24 24 23 23 22
22 23 23 23 24 24 24 25 25 26 26 27 28 28 27 28 27 27 27 27 28 28 28 28 28 28 28 28 29 29 29 29 29 29 29 29 28 28 27 28 27 27 27 27 26 26 25 24 24
23 24 24 24 25 25 25 25 26 27 27 28 28 29 29 29 29 29 29 30 30 30 31 31 31 31 31 31 31 31 32 32 32 31 31 31 31 30 29 29 29 29 29 28 28 28 27 26 26
23 24 24 25 25 26 26 26 26 27 28 28 29 30 30 30 31 31 31 32 32 32 32 33 33 33 33 33 33 34 34 34 34 34 34 34 34 33 32 31 31 31 30 30 30 29 28 28 28
22 23 24 25 25 26 26 27 28 28 29 30 30 31 31 32 32 33 33 34 34 35 35 35 36 36 36 36 36 36 36 37 37 37 37 37 37 36 35 34 34 34 33 32 32 31 30 30 30
22 23 24 25 26 26 27 28 29 29 30 30 31 32 32 33 34 35 36 36 37 37 38 38 38 39 39 39 39 39 39 39 39 39 40 39 39 39 39 37 37 36 35 35 34 34 33 33 31
22 23 23 25 26 27 28 29 30 30 31 32 33 34 34 34 35 36 37 38 39 39 40 40 40 40 41 41 42 41 41 42 42 42 42 42 42 42 42 41 40 39 38 38 37 36 36 35 34
22 23 24 25 26 27 28 29 31 32 33 34 34 35 35 36 36 37 38 39 40 41 41 42 42 42 42 43 43 43 43 44 44 45 45 45 45 45 44 44 43 41 41 41 40 40 38 37 37
22 23 25 26 26 27 28 30 31 33 34 35 36 36 37 37 37 37 38 39 40 41 42 43 43 44 44 44 44 45 45 46 46 46 47 47 48 48 47 47 47 44 44 43 43 42 42 40 40
22 22 24 25 26 27 28 29 30 32 33 35 36 37 37 38 38 38 39 40 40 41 42 43 43 44 45 45 46 47 47 48 48 49 49 50 50 50 50 50 50 49 47 46 46 45 45 44 43
22 23 24 25 26 27 29 30 31 32 34 36 37 37 38 39 39 40 40 40 41 42 43 44 45 45 46 47 47 48 48 50 51 51 52 52 52 53 53 52 52 51 50 49 49 48 48 48 46
23 24 24 25 27 28 30 31 33 34 35 36 37 38 38 39 39 40 40 41 42 43 44 45 46 47 48 49 49 50 50 51 52 53 54 54 55 55 55 54 54 54 53 52 51 51 51 51 50
22 24 25 26 27 29 30 31 33 34 35 36 37 37 38 39 39 40 40 42 43 44 45 46 47 48 50 50 51 52 52 53 54 55 56 56 57 57 57 57 56 56 55 54 54 54 54 54 52
22 24 25 26 28 29 30 30 33 34 35 36 37 38 39 40 40 40 41 42 43 45 45 46 48 49 50 52 52 53 53 54 55 56 57 58 59 60 59 59 59 58 58 57 56 56 55 56 54
24 25 26 27 28 29 30 29 32 33 33 34 36 37 39 40 41 41 41 43 44 45 46 47 48 50 51 53 54 54 55 56 56 57 58 60 61 62 62 62 61 60 59 59 59 58 58 58 56
26 27 27 28 29 29 29 29 31 33 34 34 36 37 39 40 41 42 43 44 45 45 47 48 49 51 52 53 54 54 55 56 57 58 59 61 63 63 64 63 62 62 61 61 60 59 59 60 59
28 29 29 30 30 31 30 30 31 32 34 34 35 37 39 40 41 42 43 45 46 46 48 49 50 51 52 53 54 55 56 57 58 59 60 61 63 64 65 64 64 63 63 62 61 61 61 61 61
31 32 32 33 33 33 33 31 31 32 33 33 34 37 39 40 41 43 44 46 47 48 49 50 50 51 53 55 55 56 58 58 59 60 60 61 62 64 65 64 64 64 64 63 63 62 62 61 61
33 34 35 35 35 35 35 35 33 33 33 35 36 37 38 39 41 43 45 46 47 48 50 51 51 52 54 55 56 56 57 58 59 59 59 61 61 63 64 64 65 64 64 63 63 63 62 61 61
35 36 37 37 37 37 36 37 35 35 35 36 38 39 40 41 42 44 45 46 48 49 50 51 52 53 55 55 56 56 56 58 58 58 57 59 59 61 61 62 64 64 63 63 64 64 62 61 61
37 37 38 39 39 39 38 38 37 36 37 37 39 40 41 42 43 45 46 47 48 50 50 51 53 54 54 55 55 55 55 56 57 57 56 56 57 58 59 60 61 61 62 63 63 63 62 61 61
38 38 40 41 41 41 40 40 39 39 39 39 41 43 44 45 46 46 47 48 49 50 51 51 52 53 54 54 53 53 53 53 54 54 53 53 53 54 55 56 57 58 59 61 61 61 61 60 60
39 39 40 42 43 44 42 42 40 40 40 41 43 45 46 46 47 48 50 50 50 51 51 52 51 52 52 52 51 50 51 50 51 52 52 51 50 50 51 53 54 55 56 58 59 59 59 59 58
40 40 40 42 44 45 44 44 41 41 42 42 43 45 47 49 49 50 51 51 51 51 51 51 51 50 49 49 49 48 48 47 48 49 48 48 47 47 48 49 50 51 52 55 57 57 57 57 57
42 41 41 42 44 46 46 45 43 42 42 44 45 47 49 50 51 51 51 51 51 51 50 50 50 48 47 46 47 47 46 45 46 45 45 45 44 45 45 45 47 48 50 52 54 54 54 55 54
42 42 42 43 44 46 48 47 45 44 45 46 47 49 50 50 51 51 51 51 50 49 48 48 47 47 46 46 45 45 44 45 44 43 43 43 43 44 44 43 44 46 47 50 50 50 50 50 51
43 42 42 43 45 47 49 49 46 45 46 47 48 49 51 51 52 52 51 50 49 48 47 46 46 46 45 45 44 43 43 42 42 42 42 42 41 41 42 41 41 43 45 47 48 48 49 48 48
Wind_Direction
249 249 248 247 247 247 247 247 247 246 247 247 248 248 247 247 247 249 250 249 249 249 248 248 248 247 246 246 246 246 247 247 247 247 247 248 249 249 249 250 249 248 247 247 247 247 249 250 251
251 250 249 248 248 248 247 248 248 249 249 249 250 250 250 249 250 251 251 250 250 250 250 250 250 250 249 249 249 249 250 251 251 251 251 251 251 251 251 251 252 251 251 251 251 251 252 253 254
252 251 250 250 250 250 249 249 250 251 251 251 252 252 252 251 251 251 251 252 253 252 252 253 253 252 252 251 251 251 252 252 253 253 253 254 254 254 253 252 252 253 253 253 253 253 254 255 256
253 253 252 252 251 251 251 251 252 253 253 253 253 254 254 253 253 253 253 253 254 254 254 254 254 254 253 253 252 253 252 253 253 254 254 254 254 254 254 254 253 253 254 254 254 254 255 256 257
253 254 254 254 253 252 253 253 253 254 254 255 255 255 254 255 255 255 255 254 255 256 256 256 256 255 254 254 254 254 254 253 253 254 255 254 254 255 254 254 254 254 254 255 254 254 255 255 256
254 255 256 256 255 254 255 255 255 255 256 256 256 255 255 256 256 256 257 257 256 256 256 257 257 257 256 256 256 255 255 254 255 255 255 255 255 255 255 255 254 254 254 254 255 255 254 255 256
256 256 257 257 257 256 256 256 257 257 257 257 256 256 257 257 258 258 258 258 258 257 257 257 257 257 257 257 257 256 256 255 256 255 255 255 255 256 256 255 256 255 254 255 255 255 255 255 255
258 258 258 257 258 258 258 257 257 258 258 259 259 259 259 260 260 260 260 260 259 259 258 258 257 258 258 258 258 258 257 256 256 256 256 256 256 256 255 256 255 255 255 254 254 255 256 256 256
260 261 260 259 258 259 259 259 259 259 260 260 261 261 261 262 262 262 263 262 262 260 259 258 258 257 257 258 258 258 257 257 257 257 257 256 256 255 255 256 256 256 256 255 254 254 255 256 256
263 263 263 262 261 261 261 261 261 261 261 262 262 263 263 263 263 264 264 264 264 263 262 260 259 258 258 257 258 258 258 257 257 257 257 257 257 256 256 255 255 256 256 256 255 255 255 256 256
266 266 265 265 265 265 265 265 264 264 264 265 265 265 266 266 266 266 265 265 264 263 262 261 260 259 259 258 258 258 258 258 257 257 257 257 258 257 256 255 254 255 256 256 256 255 255 256 256
269 269 268 268 268 268 269 269 268 267 267 268 268 268 269 269 268 267 266 266 264 262 262 262 262 261 260 260 259 259 259 258 257 257 257 257 257 257 256 256 254 254 255 255 256 256 256 255 256
272 271 272 271 271 270 271 271 271 270 269 269 270 270 270 270 268 268 268 267 266 265 264 263 263 262 261 260 260 260 260 259 258 257 257 257 257 257 257 256 255 254 254 254 255 255 255 255 255
276 275 275 274 274 274 273 274 273 274 273 272 272 272 272 271 269 269 269 268 267 267 266 265 265 264 263 262 261 261 261 260 259 259 257 257 257 257 257 257 256 255 255 256 256 256 255 255 255
279 278 278 277 277 277 277 277 277 276 276 276 274 274 273 271 270 270 270 270 269 269 269 267 266 266 265 264 263 262 262 261 260 259 258 257 256 256 256 257 256 255 255 256 255 255 255 255 255
283 282 281 280 280 280 279 281 281 280 279 278 276 275 274 273 273 272 272 272 272 272 271 270 268 268 266 265 264 264 263 263 262 261 259 258 257 257 257 257 256 255 255 255 255 256 255 254 254
289 287 285 283 282 283 283 284 284 283 281 280 279 277 276 276 275 274 274 274 274 274 274 273 271 270 268 267 266 264 264 264 264 262 261 260 259 258 258 257 257 255 254 254 254 256 255 254 252
290 289 287 286 286 286 286 286 285 285 284 282 280 279 278 277 276 275 275 276 276 276 276 275 274 273 271 269 267 265 265 265 265 264 263 261 260 259 259 257 257 255 254 253 253 254 254 253 252
290 289 288 288 288 288 288 287 286 286 286 285 283 281 280 279 277 276 277 277 278 278 277 278 277 275 272 270 268 266 265 266 266 265 264 263 262 260 259 257 256 255 254 253 252 252 252 252 251
290 290 289 289 290 290 290 289 288 288 288 286 285 283 282 281 279 279 279 279 280 280 280 279 279 277 274 272 271 269 267 267 267 266 265 265 263 261 260 258 256 255 254 252 251 250 250 251 250
290 290 290 290 291 291 292 290 290 289 288 288 287 286 285 283 283 282 281 281 282 282 281 280 280 278 277 275 273 272 271 269 269 267 266 265 264 263 260 259 257 255 254 251 250 249 249 249 248
289 289 290 291 291 293 293 292 292 292 290 291 290 289 288 286 286 285 285 285 285 284 283 282 281 280 280 278 275 274 273 270 270 268 267 266 265 263 261 259 256 254 253 250 248 247 248 248 247
289 289 289 290 291 292 293 294 294 295 293 292 292 291 291 288 288 289 289 289 288 287 285 284 283 283 282 280 277 275 275 272 270 269 268 266 265 263 261 259 256 253 251 249 247 246 246 246 246
289 289 289 289 291 291 293 294 295 296 295 294 293 293 292 291 291 292 293 293 292 290 288 286 285 285 284 281 278 276 276 274 271 269 268 267 265 263 261 259 255 252 250 247 246 245 245 244 244
288 289 290 290 291 292 293 293 295 296 297 296 295 294 295 294 294 294 296 296 295 293 291 289 288 287 284 281 278 277 276 274 272 269 268 266 265 263 260 257 254 250 249 245 243 243 242 243 243
287 287 289 290 292 293 293 294 296 297 297 297 296 296 297 296 296 296 297 297 296 295 293 291 290 288 285 282 278 276 276 275 272 270 269 266 265 262 258 255 252 249 247 244 242 240 240 241 241
286 286 287 288 289 291 292 294 295 296 297 297 297 297 298 298 298 299 300 300 298 297 294 292 290 288 285 282 277 276 275 274 272 271 269 266 264 261 257 254 250 247 245 242 241 240 239 239 239
284 286 286 287 289 291 292 294 297 298 298 298 298 298 299 299 300 300 301 301 299 298 296 294 291 288 285 282 278 275 274 274 273 270 269 266 263 259 257 253 250 246 244 242 239 239 239 238 238
283 284 284 285 287 289 291 294 297 299 299 299 299 299 299 300 301 301 300 300 300 298 296 294 292 289 286 283 280 277 276 275 272 270 268 266 262 258 255 253 250 245 242 239 237 237 237 236 236
281 282 283 284 286 287 289 293 297 298 298 297 297 298 299 300 300 300 299 300 299 297 295 293 292 290 287 284 281 277 276 273 271 270 267 265 261 257 253 251 247 243 241 238 235 235 235 235 235